Flag for South Korea Weather past 2 weeks in Jeju, South Korea

Now
84 °F

Scattered clouds.


Feels Like: 90 °F
Forecast: 77 / 83 °F
Wind: 8 mph from Northeast

Location: Cheju International Airport

Current Time: Jul 23, 2014 at 5:35:25 PM

Latest Report: Jul 23, 2014 at 2:00 PM


Visibility: N/A

Pressure: 29.71 "Hg

Humidity: 66%

Dew point: 72 °F

Location of JejuLocation

Historic Weather in Jeju — Graph

°F

Jeju temperature yesterday

Maximum temperature yesterday: 82 °F (at 2:00 PM)
Minimum temperature yesterday: 73 °F (at 2:00 AM)
Average temperature yesterday: 78 °F

Past Weeks' High & Low Weather Summary

 TemperatureHumidityPressure
High86 °F (Jul 8, 7:00 PM)94% (Jul 9, 2:00 AM)29.95 "Hg (Jul 9, 2:00 AM)
Low70 °F (Jul 10, 12:00 AM)51% (Jul 11, 9:00 AM)29.12 "Hg (Jul 9, 4:00 PM)
Average75 °F82%29.74 "Hg
* Reported Jul 8 2:00 PM — Jul 23 2:00 PM, Jeju, Weather by CustomWeather, © 2014

Note: Actual official high and low records may vary slightly from our data, if they occured in-between our weather recording intervals... More about our weather records

Advertising

Jeju weather history for July 9, 2014

 ConditionsComfort  
Time TempWeatherWind HumidityBarometerVisibility
12:00 AM
Jul 9
75 °FFog.15 mph89%29.65 "Hg2 mi
1:00 AM73 °FLight rain. Fog.15 mph89%29.62 "Hg2 mi
2:00 AM73 °FFog.13 mph94%29.59 "Hg2 mi
3:00 AM77 °FFog.23 mph83%29.56 "Hg2 mi
4:00 AM75 °FLight rain. Fog.23 mph83%29.53 "Hg2 mi
5:00 AM75 °FLight rain. Fog.24 mph83%29.47 "Hg2 mi
6:00 AM75 °FHeavy rain. Fog.29 mph89%29.45 "Hg1 mi
7:00 AM75 °FLight rain. Fog.33 mph89%29.39 "Hg3 mi
8:00 AM75 °FRain. Fog.35 mph83%29.39 "Hg1 mi
9:00 AM75 °FLight rain. Fog.30 mph89%29.36 "Hg2 mi
10:00 AM77 °FLight rain. Cloudy.35 mph83%29.33 "Hg4 mi
11:00 AM73 °FHeavy rain. Fog.37 mph89%29.30 "Hg1 mi
1:00 PM77 °FRain. Fog.31 mph89%29.21 "Hg1 mi
3:00 PM77 °FLight rain. Fog.28 mph89%29.15 "Hg1 mi
4:00 PM75 °FRain. Fog.31 mph94%29.12 "Hg1 mi
5:00 PM73 °FLight rain. Fog.30 mph89%29.12 "Hg1 mi
6:00 PM73 °FLight rain. Fog.29 mph89%29.12 "Hg2 mi
7:00 PM72 °FLight rain. Fog.24 mph88%29.15 "Hg2 mi
8:00 PM72 °FFog.26 mph94%29.18 "Hg2 mi
9:00 PM72 °FLight rain. Fog.24 mph88%29.21 "Hg1 mi
10:00 PM72 °FLight rain. Fog.23 mph88%29.24 "Hg1 mi
11:00 PM72 °FFog.22 mph88%29.27 "Hg2 mi
Weather by CustomWeather, © 2014

See weather overviewHow to use our weather pages